Location: Catstown
(52.4386°N, 7.2633°W)
Time: 16:37:01
(UTC+00:00)

NOSS 2-2 (C) - Pass Details

Date: 18 September 2020
Orbit: 468 x 1740 km, 63.3° (Epoch: 19 October)

Event Time Altitude Azimuth Distance (km) Brightness Sun altitude
Rises 20:04:14 0° 209° (SSW) 2,498 6.8 -13.9°
Reaches altitude 10° 20:06:17 10° 203° (SSW) 1,632 5.8 -14.2°
Maximum altitude 20:09:41 49° 128° (SE) 657 3.3 -14.7°
Drops below altitude 10° 20:13:35 10° 53° (NE) 1,870 5.7 -15.3°
Enters shadow 20:15:46 - 49° (NE) 2,785 6.7 -15.6°
